Year,Month,Day,Hour,Minute,Value (Times are PST for temperature in C)
2007,03,29,00,00,6.40
2007,03,29,00,01,6.40
2007,03,29,00,02,6.40
2007,03,29,00,03,6.40
2007,03,29,00,04,6.40
2007,03,29,00,05,6.40
2007,03,29,00,06,6.40
2007,03,29,00,07,6.40
2007,03,29,00,08,6.30
2007,03,29,00,09,6.30
2007,03,29,00,10,6.30
2007,03,29,00,11,6.20
2007,03,29,00,12,6.20
2007,03,29,00,13,6.20
2007,03,29,00,14,6.20
2007,03,29,00,15,6.20
2007,03,29,00,16,6.10
2007,03,29,00,17,6.10
2007,03,29,00,18,6.10
2007,03,29,00,19,6.10
2007,03,29,00,20,6.10
2007,03,29,00,21,6.10
2007,03,29,00,22,6.10
2007,03,29,00,23,6.10
2007,03,29,00,24,6.00
2007,03,29,00,25,6.00
2007,03,29,00,26,6.00
2007,03,29,00,27,5.90
2007,03,29,00,28,5.90
2007,03,29,00,29,5.90
2007,03,29,00,30,5.90
2007,03,29,00,31,5.80
2007,03,29,00,32,5.80
2007,03,29,00,33,5.80
2007,03,29,00,34,5.70
2007,03,29,00,35,5.70
2007,03,29,00,36,5.70
2007,03,29,00,37,5.70
2007,03,29,00,38,5.70
2007,03,29,00,39,5.70
2007,03,29,00,40,5.70
2007,03,29,00,41,5.70
2007,03,29,00,42,5.70
2007,03,29,00,43,5.70
2007,03,29,00,44,5.70
2007,03,29,00,45,5.70
2007,03,29,00,46,5.60
2007,03,29,00,47,5.60
2007,03,29,00,48,5.60
2007,03,29,00,49,5.60
2007,03,29,00,50,5.60
2007,03,29,00,51,5.60
2007,03,29,00,52,5.50
2007,03,29,00,53,5.50
2007,03,29,00,54,5.50
2007,03,29,00,55,5.50
2007,03,29,00,56,5.50
2007,03,29,00,57,5.50
2007,03,29,00,58,5.40
2007,03,29,00,59,5.40
2007,03,29,01,00,5.30
2007,03,29,01,01,5.30
2007,03,29,01,02,5.30
2007,03,29,01,03,5.30
2007,03,29,01,04,5.30
2007,03,29,01,05,5.30
2007,03,29,01,06,5.30
2007,03,29,01,07,5.30
2007,03,29,01,08,5.30
2007,03,29,01,09,5.30
2007,03,29,01,10,5.20
2007,03,29,01,11,5.20
2007,03,29,01,12,5.20
2007,03,29,01,13,5.20
2007,03,29,01,14,5.20
2007,03,29,01,15,5.10
2007,03,29,01,16,5.10
2007,03,29,01,17,5.10
2007,03,29,01,18,5.10
2007,03,29,01,19,5.10
2007,03,29,01,20,5.10
2007,03,29,01,21,5.10
2007,03,29,01,22,5.10
2007,03,29,01,23,5.10
2007,03,29,01,24,5.10
2007,03,29,01,25,5.00
2007,03,29,01,26,4.90
2007,03,29,01,27,4.90
2007,03,29,01,28,4.90
2007,03,29,01,29,4.90
2007,03,29,01,30,4.90
2007,03,29,01,31,4.90
2007,03,29,01,32,4.90
2007,03,29,01,33,4.90
2007,03,29,01,34,4.90
2007,03,29,01,35,4.80
2007,03,29,01,36,4.80
2007,03,29,01,37,4.80
2007,03,29,01,38,4.80
2007,03,29,01,39,4.70
2007,03,29,01,40,4.70
2007,03,29,01,41,4.70
2007,03,29,01,42,4.70
2007,03,29,01,43,4.70
2007,03,29,01,44,4.60
2007,03,29,01,45,4.60
2007,03,29,01,46,4.60
2007,03,29,01,47,4.60
2007,03,29,01,48,4.60
2007,03,29,01,49,4.60
2007,03,29,01,50,4.60
2007,03,29,01,51,4.60
2007,03,29,01,52,4.60
2007,03,29,01,53,4.60
2007,03,29,01,54,4.60
2007,03,29,01,55,4.50
2007,03,29,01,56,4.50
2007,03,29,01,57,4.50
2007,03,29,01,58,4.50
2007,03,29,01,59,4.50
2007,03,29,02,00,4.50
2007,03,29,02,01,4.50
2007,03,29,02,02,4.50
2007,03,29,02,03,4.60
2007,03,29,02,04,4.60
2007,03,29,02,05,4.60
2007,03,29,02,06,4.60
2007,03,29,02,07,4.60
2007,03,29,02,08,4.60
2007,03,29,02,09,4.60
2007,03,29,02,10,4.60
2007,03,29,02,11,4.60
2007,03,29,02,12,4.60
2007,03,29,02,13,4.50
2007,03,29,02,14,4.50
2007,03,29,02,15,4.50
2007,03,29,02,16,4.50
2007,03,29,02,17,4.40
2007,03,29,02,18,4.40
2007,03,29,02,19,4.40
2007,03,29,02,20,4.30
2007,03,29,02,21,4.30
2007,03,29,02,22,4.30
2007,03,29,02,23,4.30
2007,03,29,02,24,4.20
2007,03,29,02,25,4.20
2007,03,29,02,26,4.20
2007,03,29,02,27,4.20
2007,03,29,02,28,4.20
2007,03,29,02,29,4.20
2007,03,29,02,30,4.20
2007,03,29,02,31,4.20
2007,03,29,02,32,4.20
2007,03,29,02,33,4.20
2007,03,29,02,34,4.20
2007,03,29,02,35,4.20
2007,03,29,02,36,4.20
2007,03,29,02,37,4.20
2007,03,29,02,38,4.20
2007,03,29,02,39,4.20
2007,03,29,02,40,4.20
2007,03,29,02,41,4.20
2007,03,29,02,42,4.20
2007,03,29,02,43,4.20
2007,03,29,02,44,4.20
2007,03,29,02,45,4.20
2007,03,29,02,46,4.20
2007,03,29,02,47,4.10
2007,03,29,02,48,4.10
2007,03,29,02,49,4.10
2007,03,29,02,50,4.10
2007,03,29,02,51,4.10
2007,03,29,02,52,4.10
2007,03,29,02,53,4.10
2007,03,29,02,54,4.10
2007,03,29,02,55,4.10
2007,03,29,02,56,4.10
2007,03,29,02,57,4.10
2007,03,29,02,58,4.00
2007,03,29,02,59,4.00
2007,03,29,03,00,4.00
2007,03,29,03,01,4.00
2007,03,29,03,02,4.00
2007,03,29,03,03,4.00
2007,03,29,03,04,3.90
2007,03,29,03,05,3.90
2007,03,29,03,06,3.90
2007,03,29,03,07,3.90
2007,03,29,03,08,3.90
2007,03,29,03,09,3.90
2007,03,29,03,10,3.80
2007,03,29,03,11,3.80
2007,03,29,03,12,3.80
2007,03,29,03,13,3.80
2007,03,29,03,14,3.80
2007,03,29,03,15,3.80
2007,03,29,03,16,3.80
2007,03,29,03,17,3.80
2007,03,29,03,18,3.80
2007,03,29,03,19,3.80
2007,03,29,03,20,3.80
2007,03,29,03,21,3.80
2007,03,29,03,22,3.80
2007,03,29,03,23,3.80
2007,03,29,03,24,3.80
2007,03,29,03,25,3.70
2007,03,29,03,26,3.70
2007,03,29,03,27,3.70
2007,03,29,03,28,3.60
2007,03,29,03,29,3.60
2007,03,29,03,30,3.60
2007,03,29,03,31,3.60
2007,03,29,03,32,3.60
2007,03,29,03,33,3.60
2007,03,29,03,34,3.60
2007,03,29,03,35,3.60
2007,03,29,03,36,3.60
2007,03,29,03,37,3.60
2007,03,29,03,38,3.60
2007,03,29,03,39,3.60
2007,03,29,03,40,3.60
2007,03,29,03,41,3.60
2007,03,29,03,42,3.60
2007,03,29,03,43,3.60
2007,03,29,03,44,3.60
2007,03,29,03,45,3.60
2007,03,29,03,46,3.50
2007,03,29,03,47,3.50
2007,03,29,03,48,3.50
2007,03,29,03,49,3.50
2007,03,29,03,50,3.50
2007,03,29,03,51,3.50
2007,03,29,03,52,3.50
2007,03,29,03,53,3.50
2007,03,29,03,54,3.50
2007,03,29,03,55,3.60
2007,03,29,03,56,3.60
2007,03,29,03,57,3.60
2007,03,29,03,58,3.50
2007,03,29,03,59,3.50
2007,03,29,04,00,3.50
2007,03,29,04,01,3.50
2007,03,29,04,02,3.50
2007,03,29,04,03,3.50
2007,03,29,04,04,3.50
2007,03,29,04,05,3.50
2007,03,29,04,06,3.50
2007,03,29,04,07,3.40
2007,03,29,04,08,3.40
2007,03,29,04,09,3.40
2007,03,29,04,10,3.40
2007,03,29,04,11,3.40
2007,03,29,04,12,3.40
2007,03,29,04,13,3.40
2007,03,29,04,14,3.40
2007,03,29,04,15,3.40
2007,03,29,04,16,3.40
2007,03,29,04,17,3.40
2007,03,29,04,18,3.40
2007,03,29,04,19,3.30
2007,03,29,04,20,3.30
2007,03,29,04,21,3.30
2007,03,29,04,22,3.30
2007,03,29,04,23,3.30
2007,03,29,04,24,3.30
2007,03,29,04,25,3.30
2007,03,29,04,26,3.30
2007,03,29,04,27,3.30
2007,03,29,04,28,3.30
2007,03,29,04,29,3.30
2007,03,29,04,30,3.30
2007,03,29,04,31,3.40
2007,03,29,04,32,3.40
2007,03,29,04,33,3.50
2007,03,29,04,34,3.50
2007,03,29,04,35,3.50
2007,03,29,04,36,3.50
2007,03,29,04,37,3.60
2007,03,29,04,38,3.60
2007,03,29,04,39,3.60
2007,03,29,04,40,3.70
2007,03,29,04,41,3.70
2007,03,29,04,42,3.80
2007,03,29,04,43,3.80
2007,03,29,04,44,3.80
2007,03,29,04,45,3.80
2007,03,29,04,46,3.80
2007,03,29,04,47,3.90
2007,03,29,04,48,3.90
2007,03,29,04,49,3.90
2007,03,29,04,50,3.90
2007,03,29,04,51,3.90
2007,03,29,04,52,3.80
2007,03,29,04,53,3.80
2007,03,29,04,54,3.80
2007,03,29,04,55,3.80
2007,03,29,04,56,3.80
2007,03,29,04,57,3.70
2007,03,29,04,58,3.70
2007,03,29,04,59,3.70
2007,03,29,05,00,3.60
2007,03,29,05,01,3.60
2007,03,29,05,02,3.60
2007,03,29,05,03,3.60
2007,03,29,05,04,3.60
2007,03,29,05,05,3.60
2007,03,29,05,06,3.60
2007,03,29,05,07,3.60
2007,03,29,05,08,3.70
2007,03,29,05,09,3.80
2007,03,29,05,10,3.80
2007,03,29,05,11,3.80
2007,03,29,05,12,3.80
2007,03,29,05,13,3.70
2007,03,29,05,14,3.70
2007,03,29,05,15,3.70
2007,03,29,05,16,3.60
2007,03,29,05,17,3.60
2007,03,29,05,18,3.50
2007,03,29,05,19,3.50
2007,03,29,05,20,3.50
2007,03,29,05,21,3.50
2007,03,29,05,22,3.60
2007,03,29,05,23,3.60
2007,03,29,05,24,3.70
2007,03,29,05,25,3.80
2007,03,29,05,26,3.80
2007,03,29,05,27,3.80
2007,03,29,05,28,3.90
2007,03,29,05,29,4.00
2007,03,29,05,30,4.00
2007,03,29,05,31,4.10
2007,03,29,05,32,4.10
2007,03,29,05,33,4.20
2007,03,29,05,34,4.20
2007,03,29,05,35,4.20
2007,03,29,05,36,4.20
2007,03,29,05,37,4.30
2007,03,29,05,38,4.30
2007,03,29,05,39,4.30
2007,03,29,05,40,4.30
2007,03,29,05,41,4.30
2007,03,29,05,42,4.20
2007,03,29,05,43,4.20
2007,03,29,05,44,4.20
2007,03,29,05,45,4.20
2007,03,29,05,46,4.20
2007,03,29,05,47,4.20
2007,03,29,05,48,4.20
2007,03,29,05,49,4.20
2007,03,29,05,50,4.20
2007,03,29,05,51,4.20
2007,03,29,05,52,4.20
2007,03,29,05,53,4.20
2007,03,29,05,54,4.30
2007,03,29,05,55,4.40
2007,03,29,05,56,4.50
2007,03,29,05,57,4.60
2007,03,29,05,58,4.60
2007,03,29,05,59,4.60
2007,03,29,06,00,4.70
2007,03,29,06,01,4.70
2007,03,29,06,02,4.70
2007,03,29,06,03,4.70
2007,03,29,06,04,4.70
2007,03,29,06,05,4.70
2007,03,29,06,06,4.60
2007,03,29,06,07,4.50
2007,03,29,06,08,4.50
2007,03,29,06,09,4.40
2007,03,29,06,10,4.30
2007,03,29,06,11,4.20
2007,03,29,06,12,4.20
2007,03,29,06,13,4.20
2007,03,29,06,14,4.20
2007,03,29,06,15,4.20
2007,03,29,06,16,4.20
2007,03,29,06,17,4.20
2007,03,29,06,18,4.20
2007,03,29,06,19,4.20
2007,03,29,06,20,4.20
2007,03,29,06,21,4.30
2007,03,29,06,22,4.30
2007,03,29,06,23,4.30
2007,03,29,06,24,4.30
2007,03,29,06,25,4.30
2007,03,29,06,26,4.30
2007,03,29,06,27,4.20
2007,03,29,06,28,4.20
2007,03,29,06,29,4.20
2007,03,29,06,30,4.10
2007,03,29,06,31,4.10
2007,03,29,06,32,4.10
2007,03,29,06,33,4.10
2007,03,29,06,34,4.10
2007,03,29,06,35,4.10
2007,03,29,06,36,4.10
2007,03,29,06,37,4.10
2007,03,29,06,38,4.10
2007,03,29,06,39,4.20
2007,03,29,06,40,4.20
2007,03,29,06,41,4.30
2007,03,29,06,42,4.30
2007,03,29,06,43,4.40
2007,03,29,06,44,4.40
2007,03,29,06,45,4.50
2007,03,29,06,46,4.50
2007,03,29,06,47,4.50
2007,03,29,06,48,4.50
2007,03,29,06,49,4.60
2007,03,29,06,50,4.60
2007,03,29,06,51,4.60
2007,03,29,06,52,4.60
2007,03,29,06,53,4.60
2007,03,29,06,54,4.60
2007,03,29,06,55,4.60
2007,03,29,06,56,4.60
2007,03,29,06,57,4.60
2007,03,29,06,58,4.60
2007,03,29,06,59,4.70
2007,03,29,07,00,4.60
2007,03,29,07,01,4.60
2007,03,29,07,02,4.60
2007,03,29,07,03,4.60
2007,03,29,07,04,4.70
2007,03,29,07,05,4.70
2007,03,29,07,06,4.70
2007,03,29,07,07,4.70
2007,03,29,07,08,4.70
2007,03,29,07,09,4.70
2007,03,29,07,10,4.70
2007,03,29,07,11,4.70
2007,03,29,07,12,4.70
2007,03,29,07,13,4.70
2007,03,29,07,14,4.70
2007,03,29,07,15,4.70
2007,03,29,07,16,4.70
2007,03,29,07,17,4.60
2007,03,29,07,18,4.60
2007,03,29,07,19,4.60
2007,03,29,07,20,4.60
2007,03,29,07,21,4.60
2007,03,29,07,22,4.60
2007,03,29,07,23,4.60
2007,03,29,07,24,4.60
2007,03,29,07,25,4.60
2007,03,29,07,26,4.60
2007,03,29,07,27,4.60
2007,03,29,07,28,4.60
2007,03,29,07,29,4.70
2007,03,29,07,30,4.70
2007,03,29,07,31,4.70
2007,03,29,07,32,4.70
2007,03,29,07,33,4.80
2007,03,29,07,34,4.80
2007,03,29,07,35,4.80
2007,03,29,07,36,4.80
2007,03,29,07,37,4.80
2007,03,29,07,38,4.80
2007,03,29,07,39,4.80
2007,03,29,07,40,4.80
2007,03,29,07,41,4.80
2007,03,29,07,42,4.90
2007,03,29,07,43,4.90
2007,03,29,07,44,4.90
2007,03,29,07,45,4.90
2007,03,29,07,46,4.90
2007,03,29,07,47,4.90
2007,03,29,07,48,4.90
2007,03,29,07,49,4.90
2007,03,29,07,50,4.90
2007,03,29,07,51,5.00
2007,03,29,07,52,5.10
2007,03,29,07,53,5.10
2007,03,29,07,54,5.10
2007,03,29,07,55,5.10
2007,03,29,07,56,5.10
2007,03,29,07,57,5.10
2007,03,29,07,58,5.10
2007,03,29,07,59,5.10
2007,03,29,08,00,5.20
2007,03,29,08,01,5.20
2007,03,29,08,02,5.30
2007,03,29,08,03,5.30
2007,03,29,08,04,5.30
2007,03,29,08,05,5.40
2007,03,29,08,06,5.40
2007,03,29,08,07,5.50
2007,03,29,08,08,5.50
2007,03,29,08,09,5.60
2007,03,29,08,10,5.60
2007,03,29,08,11,5.60
2007,03,29,08,12,5.70
2007,03,29,08,13,5.70
2007,03,29,08,14,5.70
2007,03,29,08,15,5.80
2007,03,29,08,16,5.90
2007,03,29,08,17,5.90
2007,03,29,08,18,6.00
2007,03,29,08,19,6.00
2007,03,29,08,20,6.10
2007,03,29,08,21,6.20
2007,03,29,08,22,6.20
2007,03,29,08,23,6.20
2007,03,29,08,24,6.20
2007,03,29,08,25,6.20
2007,03,29,08,26,6.30
2007,03,29,08,27,6.30
2007,03,29,08,28,6.30
2007,03,29,08,29,6.30
2007,03,29,08,30,6.30
2007,03,29,08,31,6.40
2007,03,29,08,32,6.40
2007,03,29,08,33,6.40
2007,03,29,08,34,6.40
2007,03,29,08,35,6.50
2007,03,29,08,36,6.60
2007,03,29,08,37,6.70
2007,03,29,08,38,6.70
2007,03,29,08,39,6.90
2007,03,29,08,40,7.00
2007,03,29,08,41,7.10
2007,03,29,08,42,7.10
2007,03,29,08,43,7.20
2007,03,29,08,44,7.20
2007,03,29,08,45,7.30
2007,03,29,08,46,7.30
2007,03,29,08,47,7.30
2007,03,29,08,48,7.30
2007,03,29,08,49,7.40
2007,03,29,08,50,7.40
2007,03,29,08,51,7.50
2007,03,29,08,52,7.50
2007,03,29,08,53,7.60
2007,03,29,08,54,7.60
2007,03,29,08,55,7.70
2007,03,29,08,56,7.70
2007,03,29,08,57,7.70
2007,03,29,08,58,7.80
2007,03,29,08,59,7.80
2007,03,29,09,00,7.80
2007,03,29,09,01,7.90
2007,03,29,09,02,7.90
2007,03,29,09,03,7.90
2007,03,29,09,04,7.90
2007,03,29,09,05,8.00
2007,03,29,09,06,8.00
2007,03,29,09,07,8.00
2007,03,29,09,08,8.00
2007,03,29,09,09,8.00
2007,03,29,09,10,7.90
2007,03,29,09,11,7.90
2007,03,29,09,12,7.90
2007,03,29,09,13,7.90
2007,03,29,09,14,7.80
2007,03,29,09,15,7.90
2007,03,29,09,16,7.80
2007,03,29,09,17,7.90
2007,03,29,09,18,7.80
2007,03,29,09,19,7.80
2007,03,29,09,20,7.80
2007,03,29,09,21,7.70
2007,03,29,09,22,7.70
2007,03,29,09,23,7.60
2007,03,29,09,24,7.60
2007,03,29,09,25,7.60
2007,03,29,09,26,7.50
2007,03,29,09,27,7.50
2007,03,29,09,28,7.60
2007,03,29,09,29,7.60
2007,03,29,09,30,7.60
2007,03,29,09,31,7.60
2007,03,29,09,32,7.60
2007,03,29,09,33,7.70
2007,03,29,09,34,7.70
2007,03,29,09,35,7.60
2007,03,29,09,36,7.60
2007,03,29,09,37,7.60
2007,03,29,09,38,7.60
2007,03,29,09,39,7.60
2007,03,29,09,40,7.60
2007,03,29,09,41,7.70
2007,03,29,09,42,7.70
2007,03,29,09,43,7.70
2007,03,29,09,44,7.80
2007,03,29,09,45,7.80
2007,03,29,09,46,7.90
2007,03,29,09,47,7.90
2007,03,29,09,48,8.00
2007,03,29,09,49,8.00
2007,03,29,09,50,8.10
2007,03,29,09,51,8.10
2007,03,29,09,52,8.10
2007,03,29,09,53,8.10
2007,03,29,09,54,8.20
2007,03,29,09,55,8.20
2007,03,29,09,56,8.20
2007,03,29,09,57,8.20
2007,03,29,09,58,8.20
2007,03,29,09,59,8.20
2007,03,29,10,00,8.20
2007,03,29,10,01,8.10
2007,03,29,10,02,8.10
2007,03,29,10,03,8.10
2007,03,29,10,04,8.10
2007,03,29,10,05,8.10
2007,03,29,10,06,8.10
2007,03,29,10,07,8.20
2007,03,29,10,08,8.20
2007,03,29,10,09,8.20
2007,03,29,10,10,8.30
2007,03,29,10,11,8.30
2007,03,29,10,12,8.40
2007,03,29,10,13,8.50
2007,03,29,10,14,8.50
2007,03,29,10,15,8.60
2007,03,29,10,16,8.60
2007,03,29,10,17,8.60
2007,03,29,10,18,8.70
2007,03,29,10,19,8.70
2007,03,29,10,20,8.60
2007,03,29,10,21,8.50
2007,03,29,10,22,8.50
2007,03,29,10,23,8.50
2007,03,29,10,24,8.50
2007,03,29,10,25,8.50
2007,03,29,10,26,8.60
2007,03,29,10,27,8.50
2007,03,29,10,28,8.50
2007,03,29,10,29,8.50
2007,03,29,10,30,8.60
2007,03,29,10,31,8.60
2007,03,29,10,32,8.60
2007,03,29,10,33,8.70
2007,03,29,10,34,8.70
2007,03,29,10,35,8.80
2007,03,29,10,36,8.80
2007,03,29,10,37,8.80
2007,03,29,10,38,8.90
2007,03,29,10,39,8.90
2007,03,29,10,40,8.90
2007,03,29,10,41,8.90
2007,03,29,10,42,8.80
2007,03,29,10,43,8.90
2007,03,29,10,44,8.90
2007,03,29,10,45,9.00
2007,03,29,10,46,9.00
2007,03,29,10,47,8.90
2007,03,29,10,48,8.80
2007,03,29,10,49,8.90
2007,03,29,10,50,8.90
2007,03,29,10,51,9.00
2007,03,29,10,52,9.10
2007,03,29,10,53,9.20
2007,03,29,10,54,9.20
2007,03,29,10,55,9.20
2007,03,29,10,56,9.20
2007,03,29,10,57,9.30
2007,03,29,10,58,9.30
2007,03,29,10,59,9.40
2007,03,29,11,00,9.40
2007,03,29,11,01,9.50
2007,03,29,11,02,9.60
2007,03,29,11,03,9.60
2007,03,29,11,04,9.60
2007,03,29,11,05,9.60
2007,03,29,11,06,9.60
2007,03,29,11,07,9.50
2007,03,29,11,08,9.50
2007,03,29,11,09,9.40
2007,03,29,11,10,9.40
2007,03,29,11,11,9.30
2007,03,29,11,12,9.30
2007,03,29,11,13,9.30
2007,03,29,11,14,9.30
2007,03,29,11,15,9.20
2007,03,29,11,16,9.20
2007,03,29,11,17,9.30
2007,03,29,11,18,9.30
2007,03,29,11,19,9.40
2007,03,29,11,20,9.40
2007,03,29,11,21,9.40
2007,03,29,11,22,9.30
2007,03,29,11,23,9.30
2007,03,29,11,24,9.20
2007,03,29,11,25,9.30
2007,03,29,11,26,9.30
2007,03,29,11,27,9.30
2007,03,29,11,28,9.30
2007,03,29,11,29,9.30
2007,03,29,11,30,9.40
2007,03,29,11,31,9.40
2007,03,29,11,32,9.40
2007,03,29,11,33,9.40
2007,03,29,11,34,9.40
2007,03,29,11,35,9.40
2007,03,29,11,36,9.40
2007,03,29,11,37,9.40
2007,03,29,11,38,9.50
2007,03,29,11,39,9.50
2007,03,29,11,40,9.40
2007,03,29,11,41,9.40
2007,03,29,11,42,9.40
2007,03,29,11,43,9.50
2007,03,29,11,44,9.50
2007,03,29,11,45,9.60
2007,03,29,11,46,9.70
2007,03,29,11,47,9.70
2007,03,29,11,48,9.80
2007,03,29,11,49,9.90
2007,03,29,11,50,10.10
2007,03,29,11,51,10.10
2007,03,29,11,52,9.90
2007,03,29,11,53,9.90
2007,03,29,11,54,9.80
2007,03,29,11,55,9.80
2007,03,29,11,56,9.80
2007,03,29,11,57,9.80
2007,03,29,11,58,9.80
2007,03,29,11,59,9.80
2007,03,29,12,00,9.90
2007,03,29,12,01,9.90
2007,03,29,12,02,9.90
2007,03,29,12,03,9.90
2007,03,29,12,04,9.90
2007,03,29,12,05,9.90
2007,03,29,12,06,10.00
2007,03,29,12,07,10.10
2007,03,29,12,08,10.20
2007,03,29,12,09,10.30
2007,03,29,12,10,10.50
2007,03,29,12,11,10.60
2007,03,29,12,12,10.60
2007,03,29,12,13,10.60
2007,03,29,12,14,10.60
2007,03,29,12,15,10.60
2007,03,29,12,16,10.50
2007,03,29,12,17,10.40
2007,03,29,12,18,10.40
2007,03,29,12,19,10.40
2007,03,29,12,20,10.40
2007,03,29,12,21,10.50
2007,03,29,12,22,10.60
2007,03,29,12,23,10.60
2007,03,29,12,24,10.70
2007,03,29,12,25,10.60
2007,03,29,12,26,10.60
2007,03,29,12,27,10.70
2007,03,29,12,28,10.70
2007,03,29,12,29,10.70
2007,03,29,12,30,10.80
2007,03,29,12,31,10.90
2007,03,29,12,32,10.90
2007,03,29,12,33,10.90
2007,03,29,12,34,10.90
2007,03,29,12,35,11.00
2007,03,29,12,36,11.10
2007,03,29,12,37,11.30
2007,03,29,12,38,11.30
2007,03,29,12,39,11.30
2007,03,29,12,40,11.40
2007,03,29,12,41,11.40
2007,03,29,12,42,11.50
2007,03,29,12,43,11.60
2007,03,29,12,44,11.60
2007,03,29,12,45,11.60
2007,03,29,12,46,11.60
2007,03,29,12,47,11.60
2007,03,29,12,48,11.60
2007,03,29,12,49,11.60
2007,03,29,12,50,11.60
2007,03,29,12,51,11.60
2007,03,29,12,52,11.60
2007,03,29,12,53,11.60
2007,03,29,21,56,7.90
2007,03,29,21,57,7.90
2007,03,29,21,58,7.90
2007,03,29,21,59,7.90
2007,03,29,22,00,7.80
2007,03,29,22,01,7.80
2007,03,29,22,02,7.80
2007,03,29,22,03,7.80
2007,03,29,22,04,7.80
2007,03,29,22,05,7.80
2007,03,29,22,06,7.80
2007,03,29,22,07,7.70
2007,03,29,22,08,7.70
2007,03,29,22,09,7.70
2007,03,29,22,10,7.70
2007,03,29,22,11,7.70
2007,03,29,22,12,7.70
2007,03,29,22,13,7.60
2007,03,29,22,14,7.60
2007,03,29,22,15,7.60
2007,03,29,22,16,7.60
2007,03,29,22,17,7.60
2007,03,29,22,18,7.60
2007,03,29,22,19,7.60
2007,03,29,22,20,7.60
2007,03,29,22,21,7.60
2007,03,29,22,22,7.60
2007,03,29,22,23,7.60
2007,03,29,22,24,7.50
2007,03,29,22,25,7.50
2007,03,29,22,26,7.50
2007,03,29,22,27,7.50
2007,03,29,22,28,7.50
2007,03,29,22,29,7.40
2007,03,29,22,30,7.40
2007,03,29,22,31,7.40
2007,03,29,22,32,7.40
2007,03,29,22,33,7.40
2007,03,29,22,34,7.40
2007,03,29,22,35,7.40
2007,03,29,22,36,7.30
2007,03,29,22,37,7.30
2007,03,29,22,38,7.30
2007,03,29,22,39,7.30
2007,03,29,22,40,7.30
2007,03,29,22,41,7.30
2007,03,29,22,42,7.30
2007,03,29,22,43,7.30
2007,03,29,22,44,7.30
2007,03,29,22,45,7.30
2007,03,29,22,46,7.30
2007,03,29,22,47,7.30
2007,03,29,22,48,7.20
2007,03,29,22,49,7.20
2007,03,29,22,50,7.10
2007,03,29,22,51,7.10
2007,03,29,22,52,7.10
2007,03,29,22,53,7.00
2007,03,29,22,54,7.00
2007,03,29,22,55,7.00
2007,03,29,22,56,6.90
2007,03,29,22,57,6.90
2007,03,29,22,58,6.90
2007,03,29,22,59,6.90
2007,03,29,23,00,6.80
2007,03,29,23,01,6.80
2007,03,29,23,02,6.80
2007,03,29,23,03,6.80
2007,03,29,23,04,6.70
2007,03,29,23,05,6.70
2007,03,29,23,06,6.60
2007,03,29,23,07,6.60
2007,03,29,23,08,6.60
2007,03,29,23,09,6.60
2007,03,29,23,10,6.50
2007,03,29,23,11,6.40
2007,03,29,23,12,6.40
2007,03,29,23,13,6.40
2007,03,29,23,14,6.40
2007,03,29,23,15,6.30
2007,03,29,23,16,6.30
2007,03,29,23,17,6.30
2007,03,29,23,18,6.20
2007,03,29,23,19,6.20
2007,03,29,23,20,6.20
2007,03,29,23,21,6.20
2007,03,29,23,22,6.20
2007,03,29,23,23,6.20
2007,03,29,23,24,6.20
2007,03,29,23,25,6.20
2007,03,29,23,26,6.20
2007,03,29,23,27,6.20
2007,03,29,23,28,6.20
2007,03,29,23,29,6.20
2007,03,29,23,30,6.20
2007,03,29,23,31,6.20
2007,03,29,23,32,6.20
2007,03,29,23,33,6.20
2007,03,29,23,34,6.20
2007,03,29,23,35,6.20
2007,03,29,23,36,6.20
2007,03,29,23,37,6.20
2007,03,29,23,38,6.20
2007,03,29,23,39,6.20
2007,03,29,23,40,6.10
2007,03,29,23,41,6.10
2007,03,29,23,42,6.10
2007,03,29,23,43,6.00
2007,03,29,23,44,6.00
2007,03,29,23,45,6.00
2007,03,29,23,46,6.00
2007,03,29,23,47,5.90
2007,03,29,23,48,5.90
2007,03,29,23,49,5.90
2007,03,29,23,50,5.90
2007,03,29,23,51,5.80
2007,03,29,23,52,5.80
2007,03,29,23,53,5.80
2007,03,29,23,54,5.80
2007,03,29,23,55,5.80
2007,03,29,23,56,5.80
2007,03,29,23,57,5.70
2007,03,29,23,58,5.70
2007,03,29,23,59,5.70
